星链-5469 (STARLINK-5469 )

导读

STARLINK-5469是美国太空探索技术公司SpaceX星链卫星互联网项目中的一颗卫星,于2023年2月17日发射入轨,属于星链低轨卫星星座。星链旨在为全球提供覆盖广泛、低延迟的高速互联网服务,这颗卫星的入轨进一步扩充了星链星座的在轨规模,助力项目全球组网进程。

基本信息
目录编号:
55649
目录名称:
STARLINK-5469
国际标识:
2023-021X
轨道中心:
EARTH
卫星名称:
星链-5469
卫星全名:
星链-5469 (STARLINK-5469 )
卫星状态:
在轨 (已飞行1303 天)
发射日期:
2023-02-17 UTC
国别 :
美国 (US)
星等 :
--
该卫星已列入 空间交会检测服务 Space Conjunction Data Service (SCDS) ,当前飞行风险评估等级: 无高风险
轨道信息
数据来源 国际轨道数据 AOE轨道数据
星历时间 2026-09-12T13:12:36+0800
8小时前
查看轨道信息
2026-09-10T18:00:00+0800
2天前
查看轨道信息
半长轴 6950.185km 6950.159km
偏心率 0.0002524 0.0002199
轨道倾角 69.999° 70.002°
近地点辐角 270.067° 264.670°
升交点赤经 74.064° 78.606°
平近点角 90.019° 106.731°
近地点 570.293km 570.493km
远地点 573.803km 573.551km
周期 96.107分钟 96.106分钟
每日圈数 14.983326 14.983411
详细信息
固有亮度:
5
最大亮度:
2.5
卫星平台:
Starlink v1.5
覆盖范围:
全球
运营商:
太空探索技术公司
运营商所在国:
美国
制造商(研发单位):
太空探索技术公司
制造商所在国:
美国
使用方式:
暂无
卫星简介
星链(Starlink)计划是由太空探索技术公司(SpaceX)提出的一个巨型低轨卫星互联网星座项目,计划在2019年至2024年间在太空搭建由约1.2万颗卫星组成的“星链”网络,其中1584颗将部署在地球上空550千米处的近地轨道,并从2020年开始工作。该卫星仍在工作。
2D轨道图
3D轨道图
轨道高度分析图
轨道倾角分析图
轨道综合分析图
查看轨道综合分析图
与全量物体交会距离演化趋势
与全量物体交会风险概率演化趋势